Regional Weather Roundup
Issued by NWS

Home | Current Version | Previous Version | Graphics & Text | Print | Product List | Glossary Off
Versions: 1 2 3 4 5 6 7 8 9 10 11 12 13 14 15 16 17 18 19 20 21 22 23 24 25 26 27 28 29 30 31 32 33 34 35 36 37 38 39 40 41 42 43 44 45 46 47 48 49 50

000
ASUS43 KTOP 211608
RWRKS

WEATHER ROUNDUP FOR KANSAS
NATIONAL WEATHER SERVICE GOODLAND KS
1100 AM CDT THU AUG 21 2014

NOTE:  "FAIR" INDICATES FEW OR NO CLOUDS BELOW 12,000 FEET WITH NO
SIGNIFICANT WEATHER AND/OR OBSTRUCTIONS TO VISIBILITY.

KSZ001>006-013>018-027>032-041>047-211700-
NORTHWEST KANSAS

CITY           SKY/WX    TMP DP  RH WIND       PRES   REMARKS
GOODLAND       SUNNY     83  53  35 N14       30.00R
HAYS           SUNNY     88  66  48 SW14      29.86S
HILL CITY      PTSUNNY   83  66  56 NE5       29.86R
RUSSELL        SUNNY     90  65  43 SW20G26   29.84S
$$

KSZ061>065-074>080-084>089-211700-
SOUTHWEST KANSAS

CITY           SKY/WX    TMP DP  RH WIND       PRES   REMARKS
DODGE CITY     SUNNY     86  63  45 SW17G24   29.91S
ELKHART          N/A     82  58  43 NW10        N/A
GARDEN CITY    SUNNY     84  63  49 SW12      29.91S
GREAT BEND     SUNNY     90  66  45 SW18G24   29.87F
LIBERAL        SUNNY     88  63  42 SW20G26   29.94F
PRATT          SUNNY     86  61  42 SW17G29   29.92S
$$

KSZ066>073-081>083-090>101-211700-
SOUTHEAST KANSAS

CITY           SKY/WX    TMP DP  RH WIND       PRES   REMARKS
CHANUTE        SUNNY     89  70  53 S16       29.97S
COFFEYVILLE    SUNNY     88  72  58 S16       29.97S
HUTCHINSON     SUNNY     90  64  42 S18G28    29.90S
MEDICINE LODGE   N/A     89  63  41 S18G26    29.90S
NEWTON         SUNNY     88  64  45 S23       29.95S
PARSONS        SUNNY     88  71  57 SW13      29.99S
WICHITA INTL   SUNNY     90  67  46 S17G25    29.92S
WICHITA JABRA  SUNNY     87  67  51 SW22G29   29.92S
WICHITA MCCONL SUNNY     87  69  55 S18       29.94R
WINFIELD       SUNNY     89  71  55 S18G24    29.96R HX  95
$$

KSZ007>012-019>026-033>040-048>060-102>105-211700-
NORTHEAST KANSAS

CITY           SKY/WX    TMP DP  RH WIND       PRES   REMARKS
CONCORDIA      MOSUNNY   85  69  58 S10       29.86S
EMPORIA        SUNNY     89  68  49 S24G30    29.92S
LAWRENCE       MOSUNNY   88  71  57 SW5       29.91S
MANHATTAN      SUNNY     92  68  45 SW18G26   29.87R HX  96
MARYSVILLE     MOSUNNY   86  72  62 SW6       29.88F
OLATHE IND     MOSUNNY   86  70  58 S16       29.94S
OLATHE EXE     MOSUNNY   85  72  65 SW14      29.94R
SALINA         SUNNY     90  66  45 S20G31    29.88R
TOPEKA BILLARD MOSUNNY   88  71  57 S13       29.90S
TOPEKA FORBES  SUNNY     90  69  50 SW14G23   29.90S
$$



USA.gov is the U.S. government's official web portal to all federal, state and local government web resources and services.